Tracking 29892 objects as of 21-Nov-2024
HD Live streaming from Space Station
objects crossing your sky now

DELTA 1 DEB

Track DELTA 1 DEB now!
10-day predictions


NORAD ID: 14563
Int'l Code: 1977-065FP
Perigee: 500.9 km
Apogee: 1,150.2 km
Inclination: 29.2 °
Period: 101.3 minutes
Semi major axis: 7196 km
RCS: 0.012 m2 (small)
Launch date: July 14, 1977
Source: United States (US)
Launch site: AIR FORCE EASTERN TEST RANGE (AFETR)

Note: This is SATELLITE DEBRIS
Your satellite tracking list
Your tracking list is empty




NASA's NSSDC Master Catalog

Two Line Element Set (TLE):
1 14563U 77065FR  24325.38747425  .00010964  00000-0  16607-2 0  9992
2 14563  29.1685 338.9844 0451129 265.4323  89.4608 14.22049820705546
Source of the keplerian elements: AFSPC